Погода в Казанке

Россия / Омская область     55°16′05″N   72°45′04″E
темп.,
°C
ветер,
м/с
пор.,
м/с
влажн.,
%
обл.,
%
осадки,
мм/ч
давл.,
гПа
погр.,
м
4 августа, ср
ср400:00+16ссз228892 2.3 100919
03:00+15ссз349349 0.2 100966
06:00+14ссз369516 0.3 1011121
09:00+18ссз467636 0.0 1011544
12:00+21с5656100 0.0 10111145
15:00+24ссз574691 0.0 10101973
18:00+24с694815 0.0 10111697
21:00+21с226090 0.0 101134
5 августа, чт
чт500:00+19с226813 0.0 101130
03:00+15с33820 0.0 101233
06:00+15ссз237592 0.0 101241
09:00+20ссз345899 0.0 1012281
12:00+25ссз363534 0.0 10112465
15:00+26ссз563390 0.0 10102396
18:00+26с463495 0.0 10102298
21:00+20всв335799 0.0 101129
6 августа, пт
пт600:00+19сз1158100 0.0 101012
03:00+16з1167100 0.0 101011
06:00+16ююв117090 0.0 101011
09:00+22юз225049 0.0 1010328
12:00+26ююз1136100 0.0 10091735
15:00+26юз533839 0.0 10091725
18:00+26зюз324264 0.0 10081597
21:00+21з226437 0.0 100816
7 августа, сб
сб700:00+18в11735 0.0 100811
03:00+17ююз2281100 0.0 100820
06:00+17юв2285100 0.0 100724
09:00+21ююв3568100 0.3 1008427
12:00+24ююв4654100 0.4 10081026
15:00+24юв565771 0.2 1008792
18:00+23юв566932 1.1 1007599
21:00+18вюв379048 0.8 1006134
8 августа, вс
вс800:00+16юв3593100 3.1 100799
03:00+16в229498 0.6 100630
06:00+16вюв249795 3.1 1006123
09:00+19всв23845 1.3 1006333
12:00+25в465734 1.3 10051370
15:00+28вюв564237 0.1 10041885
18:00+25св4756100 0.3 1002295
21:00+16в4885100 14.1 1006178